Regional Weather Roundup
Issued by NWS

Home | Current Version | Previous Version | Graphics & Text | Print | Product List | Glossary On
Versions: 1 2 3 4 5 6 7 8 9 10 11 12 13 14 15 16 17 18 19 20 21 22 23 24 25 26 27 28 29 30 31 32 33 34 35 36 37 38 39 40 41 42 43 44 45 46 47 48 49 50
000
ASUS43 KLSX 040357
RWRMO

WEATHER SUMMARY FOR MISSOURI
NATIONAL WEATHER SERVICE SPRINGFIELD MO
1100 PM CDT THU SEP 03 2015

NOTE: "FAIR" INDICATES FEW OR NO CLOUDS BELOW 12,000 FEET WITH NO
       SIGNIFICANT WEATHER AND/OR OBSTRUCTIONS TO VISIBILITY.
       CURRENT SKY AND/OR WEATHER CONDITIONS ARE NOT AVAILABLE FOR
       CHILLICOTHE AND FARMINGTON.

MOZ001>031-035>038-043-044-053-054-040500-
...NORTHERN AND WESTERN MISSOURI...

CITY           SKY/WX    TMP DP  RH WIND       PRES   REMARKS
KANSAS CTY INT CLEAR     74  67  78 S9        29.92R
LEE`S SUMMIT   CLEAR     78  67  68 S7        29.94R
ST JOSEPH      CLEAR     75  69  81 S7        29.90R
CHILLICOTHE      N/A     75  70  84 CALM      29.93R

$$
MOZ066>068-077>081-088>096-101>105-040500-
...SOUTHWEST MISSOURI...

CITY           SKY/WX    TMP DP  RH WIND       PRES   REMARKS
SPRINGFIELD    CLEAR     76  69  79 SE5       29.97R
JOPLIN         PTCLDY    75  69  81 SE3       29.95R

$$
MOZ032>034-039>042-045>050-055>058-069>072-040500-
...CENTRAL MISSOURI...

CITY           SKY/WX    TMP DP  RH WIND       PRES   REMARKS
COLUMBIA       NOT AVBL
JEFFERSON CITY CLEAR     76  70  82 CALM      29.94R
ROLLA          CLEAR     74  67  78 S8        29.97R
SEDALIA        CLEAR     75  68  78 S6        29.96R

$$
MOZ051-052-059>065-040500-
...EAST CENTRAL MISSOURI...

CITY           SKY/WX    TMP DP  RH WIND       PRES   REMARKS
ST LOUIS INTL  PTCLDY    83  68  60 CALM      29.96S

$$
MOZ072>076-082>087-097>100-106>115-040500-
...SOUTH CENTRAL AND SOUTHEAST MISSOURI...

CITY           SKY/WX    TMP DP  RH WIND       PRES   REMARKS
CAPE GIRARDEAU CLEAR     74  71  91 CALM      29.96S
POPLAR BLUFF   CLEAR     72  71  97 CALM      29.95S FOG
WEST PLAINS    CLEAR     72  68  87 CALM      30.01S

$$



USA.gov is the U.S. government's official web portal to all federal, state and local government web resources and services.